Regional Weather Roundup
Issued by NWS

Home | Current Version | Previous Version | Text Only | Print | Product List | Glossary Off
Versions: 1 2 3 4 5 6 7 8 9 10 11 12 13 14 15 16 17 18 19 20 21 22 23 24 25 26 27 28 29 30 31 32 33 34 35 36 37 38 39 40 41 42 43 44 45 46 47 48 49 50

000
ASUS43 KBIS 222220
RWRND

NORTH DAKOTA REGIONAL WEATHER ROUNDUP
NATIONAL WEATHER SERVICE BISMARCK ND
400 PM CST MON DEC 22 2014

NOTE: "FAIR" INDICATES FEW OR NO CLOUDS BELOW 12,000 FEET WITH NO
SIGNIFICANT WEATHER AND/OR OBSTRUCTIONS TO VISIBILITY.


NDZ001>003-009>011-017-222300-
NORTHWEST NORTH DAKOTA

CITY           SKY/WX    TMP DP  RH WIND       PRES   REMARKS
WILLISTON      CLOUDY    27  22  81 NW14      29.70R WCI  16
MINOT          CLOUDY    28  25  88 NW14      29.64R WCI  17
MINOT AFB      CLOUDY    28  28 100 NW12      29.65R WCI  18
$$

NDZ018>021-031>035-040>046-222300-
SOUTHWEST NORTH DAKOTA

CITY           SKY/WX    TMP DP  RH WIND       PRES   REMARKS
BISMARCK       CLOUDY    31  31 100 N13       29.56R FOG
DICKINSON      LGT SNOW  26  22  84 NW18      29.60R FOG     WCI  13
GARRISON         N/A     28  27  96 N17       29.61R WCI  16
HETTINGER ARPT LGT SNOW  25  21  85 NW26G33   29.59R VSB 1   WCI   9
$$

NDZ004>008-012>016-024-026-027-054-222300-
NORTHEAST NORTH DAKOTA

CITY           SKY/WX    TMP DP  RH WIND       PRES   REMARKS
GRAND FORKS    CLOUDY    37  36  96 E7        29.58R
GRND FRKS AFB  LGT RAIN  36  36 100 E6        29.59R FOG
DEVILS LAKE    CLOUDY    34  32  93 NE12      29.58R
$$

NDZ022-023-025-028>030-036>039-047>053-222300-
SOUTHEAST NORTH DAKOTA

CITY           SKY/WX    TMP DP  RH WIND       PRES   REMARKS
FARGO          CLOUDY    40  36  86 E9        29.55R
JAMESTOWN      MIX PCPN  34  32  92 NE12      29.50R
$$




USA.gov is the U.S. government's official web portal to all federal, state and local government web resources and services.